Regional Weather Roundup
Issued by NWS

Home | Current Version | Previous Version | Text Only | Print | Product List | Glossary Off
Versions: 1 2 3 4 5 6 7 8 9 10 11 12 13 14 15 16 17 18 19 20 21 22 23 24 25 26 27 28 29 30 31 32 33 34 35 36 37 38 39 40 41 42 43 44 45 46 47 48 49 50

000
ASUS43 KOAX 040110
RWRNE

WEATHER ROUNDUP FOR NEBRASKA
NATIONAL WEATHER SERVICE OMAHA NE
800 PM CDT TUE MAY 03 2016

NOTES: SATELLITE DATA IS BEING USED TO AUGMENT CLOUD COVER ABOVE
       12000 FEET.
       "FAIR" INDICATES FEW OR NO CLOUDS BELOW 12,000 FEET WITH NO
       SIGNIFICANT WEATHER AND/OR OBSTRUCTIONS TO VISIBILITY.

  * THESE STATIONS DO NOT REPORT WEATHER SUCH AS RAIN...SNOW OR FOG.

NEZ001>004-019>022-054>056-040200-
NEBRASKA PANHANDLE

CITY           SKY/WX    TMP DP  RH WIND       PRES   REMARKS
SCOTTSBLUFF    PTCLDY    71  38  29 N9        30.10S
ALLIANCE       CLEAR     65  39  38 N10       30.10R
CHADRON        CLEAR     68  43  40 NE9       30.08S
KIMBALL        PTCLDY    65  37  35 N14       30.16R
SIDNEY         CLEAR     65  32  29 N8        30.13S
$$

NEZ057>060-069>072-079>082-040200-
SOUTHWEST NEBRASKA

CITY           SKY/WX    TMP DP  RH WIND       PRES   REMARKS
NORTH PLATTE   CLEAR     66  34  30 N9        30.03S
IMPERIAL       CLEAR     66  35  31 N10       30.07S
LEXINGTON      CLEAR     64  46  51 NW6       30.01F
MCCOOK         CLEAR     65  40  39 N8        30.04S
OGALLALA       CLEAR     63  36  36 N7        30.07S
$$

NEZ005>010-023>029-035>040-094-040200-
NORTH CENTRAL NEBRASKA

CITY           SKY/WX    TMP DP  RH WIND       PRES   REMARKS
VALENTINE      CLEAR     69  37  30 NW12      30.01S
AINSWORTH      CLEAR     66  41  39 NW9       30.01S
BROKEN BOW     LGT RAIN  66  40  38 NW7       30.00S
O`NEILL        CLEAR     67  39  35 NW12      29.95F
ORD            CLEAR     65  43  44 NW9       29.96S
THEDFORD       CLEAR     68  37  32 N12       30.04R
$$

NEZ041-046>049-061>064-073>077-083>087-040200-
SOUTH CENTRAL NEBRASKA

CITY           SKY/WX    TMP DP  RH WIND       PRES   REMARKS
GRAND ISLAND   CLEAR     65  44  46 W8        29.97F
AURORA         CLEAR     66  42  42 W9        29.96F
HASTINGS       CLEAR     65  42  43 W8        29.98F
HEBRON         CLEAR     66  42  40 NW6       29.97S
HOLDREGE       CLEAR     65  40  41 NW3       30.01S
KEARNEY *      CLEAR     66  43  42 W6        30.00F
YORK           CLEAR     64  45  48 W9        29.95F
$$

NEZ011>018-030>034-042>045-040200-
NORTHEAST NEBRASKA

CITY           SKY/WX    TMP DP  RH WIND       PRES   REMARKS
NORFOLK        CLEAR     65  42  43 NW8       29.91S
ALBION         CLEAR     64  42  45 NW9       29.95S
BLAIR          CLEAR     68  41  37 W7        29.90S
COLUMBUS *     CLEAR     66  39  37 NW10      29.94R
FREMONT        CLEAR     64  48  56 W8        29.91S
TEKAMAH        CLEAR     66  45  46 NW10      29.88F
WAYNE          CLEAR     64  44  47 W12       29.89F
$$

NEZ050>053-065>068-078-088>093-040200-
SOUTHEAST NEBRASKA

CITY           SKY/WX    TMP DP  RH WIND       PRES   REMARKS
LINCOLN        CLEAR     69  40  34 W8        29.93F
OMAHA EPPLEY   PTCLDY    68  42  38 NW10      29.88F
BEATRICE       CLEAR     64  43  45 NW7       29.95S
FALLS CITY     CLEAR     64  43  46 W7        29.92F
NEBRASKA CITY  CLEAR     64  42  45 W8        29.92F
PLATTSMOUTH    CLEAR     68  43  40 W9        29.90F
$$

NEZ044-045-051>053-067-040200-
OMAHA AREA

CITY           SKY/WX    TMP DP  RH WIND       PRES   REMARKS
OMAHA EPPLEY   PTCLDY    68  42  38 NW10      29.88F
BLAIR          CLEAR     68  41  37 W7        29.90S
FREMONT        CLEAR     64  48  56 W8        29.91S
MILLARD        CLEAR     67  43  41 W8        29.89F
OFFUTT AFB     CLEAR     68  44  41 W9        29.89F
PLATTSMOUTH    CLEAR     68  43  40 W9        29.90F
WAHOO          FAIR      67  44  43 NW8       29.91F
$$




USA.gov is the U.S. government's official web portal to all federal, state and local government web resources and services.